Randolph AFB, TX

7:35 AM CDT on May 28, 2017 (GMT -0500)
Randolph Air Force Base

Weather History for KRND - November, 2012

Change the Weather History Date:

Thursday, November 22, 2012

  Actual Average Record
Temperature  
Mean Temperature 62 °F -  
Max Temperature 77 °F 67 °F 84 °F (1999)
Min Temperature 48 °F 48 °F 33 °F (2015)
Degree Days  
Heating Degree Days 2    
Growing Degree Days 12 (Base 50)    
Moisture  
Dew Point 52 °F    
Average Humidity 94    
Maximum Humidity 100    
Minimum Humidity 46    
Precipitation  
Precipitation 0.00 in - - ()
Sea Level Pressure  
Sea Level Pressure 30.13 in    
Wind  
Wind Speed 2 mph (WNW)    
Max Wind Speed 15 mph    
Max Gust Speed 22 mph    
Visibility 4 miles    
Events Fog , Rain    
Averages and records for this station are not official NWS values.
T = Trace of Precipitation, MM = Missing Value Source: NWS Daily Summary

Daily Weather History Graph

Daily Weather History Graph

Search for Another Location

Airport or City:

Trip Planner

Search our weather history database for the weather conditions in past years. The results will help you decide how hot, cold, wet, or windy it might be!

Date:

Astronomy

Nov. 22, 2012 Rise Set
Actual Time 7:03 AM CST 5:35 PM CST
Civil Twilight 6:37 AM CST 6:00 PM CST
Nautical Twilight 6:08 AM CST 6:29 PM CST
Astronomical Twilight 5:40 AM CST 6:58 PM CST
Moon 2:01 PM CST (11/22) 1:47 AM CST (11/22)
Length of Visible Light 11h 22m
Length of Day
10h 31m
Waxing Gibbous, 71% of the Moon is Illuminated
Nov 22
Waxing Gibbous
Nov 28
Full
Dec 6
Last Quarter
Dec 13
New
Dec 19
First Quarter

Hourly Weather History & Observations

Time (CST) Temp. Dew Point Humidity Pressure Visibility Wind Dir Wind Speed Gust Speed Precip Events Conditions
12:55 AM 57.0 °F 55.8 °F 96% 30.14 in 10.0 mi SSE 5.8 mph - N/A   Clear
1:55 AM 59.5 °F 58.3 °F 96% 30.14 in 10.0 mi WSW 4.6 mph - N/A   Clear
2:55 AM 57.0 °F 56.8 °F 99% 30.14 in 10.0 mi WSW 4.6 mph - N/A   Clear
3:55 AM 55.0 °F 54.7 °F 99% 30.14 in 10.0 mi WSW 4.6 mph - N/A   Clear
4:18 AM 53.6 °F 53.6 °F 100% 30.13 in 6.0 mi Calm Calm - N/A   Clear
4:20 AM 53.6 °F 53.6 °F 100% 30.13 in 5.0 mi Calm Calm - N/A   Clear
4:21 AM 53.6 °F 53.6 °F 100% 30.13 in 4.0 mi Calm Calm - N/A   Clear
4:25 AM 53.6 °F 53.6 °F 100% 30.13 in 3.0 mi Calm Calm - N/A   Clear
4:36 AM 53.6 °F 53.6 °F 100% 30.13 in 1.5 mi Calm Calm - N/A   Clear
4:37 AM 51.8 °F 51.8 °F 100% 30.13 in 1.0 mi Calm Calm - N/A   Clear
4:38 AM 51.8 °F 51.8 °F 100% 30.13 in 0.8 mi Calm Calm - N/A   Clear
4:39 AM 51.8 °F 51.8 °F 100% 30.13 in 0.5 mi Calm Calm - N/A Fog Fog
4:43 AM 51.8 °F 51.8 °F 100% 30.13 in 0.2 mi Calm Calm - N/A Fog Fog
4:44 AM 51.8 °F 51.8 °F 100% 30.13 in 0.2 mi Calm Calm - N/A Fog Fog
4:45 AM 51.8 °F 51.8 °F 100% 30.13 in 0.2 mi Calm Calm - N/A Fog Fog
4:55 AM 50.9 °F 50.7 °F 99% 30.13 in 0.2 mi Calm Calm - N/A Fog Fog
5:01 AM 50.0 °F 50.0 °F 100% 30.13 in 0.2 mi Calm Calm - N/A Fog Fog
5:02 AM 50.0 °F 50.0 °F 100% 30.13 in 0.2 mi Calm Calm - N/A Fog Fog
5:03 AM 50.0 °F 50.0 °F 100% 30.14 in 0.5 mi Calm Calm - N/A Fog Fog
5:06 AM 50.0 °F 50.0 °F 100% 30.14 in 0.8 mi Calm Calm - N/A   Clear
5:07 AM 50.0 °F 50.0 °F 100% 30.14 in 0.8 mi Calm Calm - N/A   Clear
5:08 AM 50.0 °F 50.0 °F 100% 30.14 in 1.2 mi Calm Calm - N/A   Clear
5:09 AM 50.0 °F 50.0 °F 100% 30.13 in 2.0 mi Calm Calm - N/A   Clear
5:10 AM 50.0 °F 50.0 °F 100% 30.13 in 3.0 mi Calm Calm - N/A   Clear
5:12 AM 50.0 °F 50.0 °F 100% 30.13 in 5.0 mi Calm Calm - N/A   Clear
5:36 AM 50.0 °F 50.0 °F 100% 30.14 in 6.0 mi NNW 4.6 mph - N/A   Clear
5:42 AM 50.0 °F 50.0 °F 100% 30.14 in 4.0 mi NNW 4.6 mph - N/A   Clear
5:45 AM 50.0 °F 50.0 °F 100% 30.14 in 4.0 mi NNW 3.5 mph - N/A   Clear
5:49 AM 50.0 °F 50.0 °F 100% 30.13 in 3.0 mi NNW 3.5 mph - N/A   Clear
5:53 AM 51.8 °F 51.8 °F 100% 30.13 in 2.5 mi Calm Calm - N/A   Clear
5:55 AM 51.8 °F 51.8 °F 100% 30.13 in 2.5 mi Calm Calm - N/A   Clear
5:57 AM 51.8 °F 51.8 °F 100% 30.13 in 2.5 mi Calm Calm - N/A   Clear
6:00 AM 51.8 °F 51.8 °F 100% 30.13 in 2.5 mi Calm Calm - N/A   Clear
6:01 AM 53.6 °F 53.6 °F 100% 30.13 in 2.5 mi Calm Calm - N/A   Clear
6:02 AM 53.6 °F 53.6 °F 100% 30.13 in 2.5 mi Calm Calm - N/A   Clear
6:03 AM 53.6 °F 53.6 °F 100% 30.13 in 3.0 mi Calm Calm - N/A   Clear
6:05 AM 53.6 °F 53.6 °F 100% 30.13 in 2.0 mi Calm Calm - N/A   Clear
6:06 AM 53.6 °F 53.6 °F 100% 30.13 in 1.5 mi Calm Calm - N/A   Clear
6:07 AM 53.6 °F 53.6 °F 100% 30.13 in 1.0 mi Calm Calm - N/A   Clear
6:08 AM 51.8 °F 51.8 °F 100% 30.14 in 0.8 mi Calm Calm - N/A   Clear
6:09 AM 51.8 °F 51.8 °F 100% 30.13 in 0.5 mi Calm Calm - N/A Fog Fog
6:12 AM 51.8 °F 51.8 °F 100% 30.13 in 0.2 mi Calm Calm - N/A Fog Fog
6:13 AM 51.8 °F 51.8 °F 100% 30.14 in 0.2 mi Calm Calm - N/A Fog Fog
6:14 AM 51.8 °F 51.8 °F 100% 30.13 in 0.2 mi Calm Calm - N/A Fog Fog
6:29 AM 50.0 °F 48.2 °F 94% 30.14 in 0.2 mi Calm Calm - N/A Fog Fog
6:30 AM 48.2 °F 48.2 °F 100% 30.14 in 0.2 mi Calm Calm - N/A Fog Fog
6:31 AM 48.2 °F 48.2 °F 100% 30.14 in 0.2 mi Calm Calm - N/A Fog Fog
6:32 AM 48.2 °F 48.2 °F 100% 30.14 in 0.5 mi Calm Calm - N/A Fog Fog
6:33 AM 48.2 °F 48.2 °F 100% 30.14 in 0.5 mi Calm Calm - N/A Fog Fog
6:35 AM 50.0 °F 48.2 °F 94% 30.14 in 0.8 mi Calm Calm - N/A   Clear
6:36 AM 50.0 °F 50.0 °F 100% 30.14 in 1.0 mi Calm Calm - N/A   Clear
6:37 AM 50.0 °F 50.0 °F 100% 30.14 in 1.5 mi Calm Calm - N/A   Clear
6:38 AM 50.0 °F 50.0 °F 100% 30.14 in 2.5 mi Calm Calm - N/A   Clear
6:39 AM 50.0 °F 50.0 °F 100% 30.14 in 3.0 mi Calm Calm - N/A   Clear
6:40 AM 50.0 °F 50.0 °F 100% 30.14 in 4.0 mi NNW 3.5 mph - N/A   Clear
6:41 AM 50.0 °F 50.0 °F 100% 30.14 in 5.0 mi NNW 3.5 mph - N/A   Clear
6:48 AM 50.0 °F 50.0 °F 100% 30.14 in 4.0 mi NNW 3.5 mph - N/A   Clear
6:52 AM 50.0 °F 50.0 °F 100% 30.14 in 2.5 mi NNW 3.5 mph - N/A   Clear
6:55 AM 50.7 °F 50.7 °F 100% 30.14 in 2.0 mi NNW 3.5 mph - N/A   Clear
7:01 AM 50.0 °F 50.0 °F 100% 30.14 in 1.8 mi NNW 5.8 mph - N/A   Clear
7:02 AM 50.0 °F 50.0 °F 100% 30.15 in 1.2 mi NNW 5.8 mph - N/A   Clear
7:03 AM 50.0 °F 50.0 °F 100% 30.15 in 1.0 mi NNW 5.8 mph - N/A   Clear
7:05 AM 50.0 °F 50.0 °F 100% 30.14 in 0.8 mi NNW 4.6 mph - N/A   Clear
7:07 AM 50.0 °F 50.0 °F 100% 30.15 in 0.5 mi NNW 4.6 mph - N/A Fog Fog
7:10 AM 50.0 °F 50.0 °F 100% 30.14 in 0.5 mi NNW 3.5 mph - N/A Fog Fog
7:11 AM 50.0 °F 50.0 °F 100% 30.15 in 0.5 mi NNW 3.5 mph - N/A Fog Fog
7:13 AM 50.0 °F 50.0 °F 100% 30.15 in 0.8 mi NNW 3.5 mph - N/A   Clear
7:15 AM 50.0 °F 50.0 °F 100% 30.15 in 1.0 mi NNW 3.5 mph - N/A   Clear
7:16 AM 50.0 °F 50.0 °F 100% 30.15 in 1.2 mi NNW 3.5 mph - N/A   Clear
7:17 AM 50.0 °F 50.0 °F 100% 30.15 in 1.5 mi NNW 3.5 mph - N/A   Clear
7:18 AM 50.0 °F 50.0 °F 100% 30.15 in 1.8 mi NW 3.5 mph - N/A   Clear
7:20 AM 50.0 °F 50.0 °F 100% 30.15 in 2.0 mi NW 3.5 mph - N/A   Clear
7:23 AM 50.0 °F 50.0 °F 100% 30.15 in 3.0 mi NW 3.5 mph - N/A   Clear
7:31 AM 50.0 °F 50.0 °F 100% 30.15 in 5.0 mi Calm Calm - N/A   Clear
7:53 AM 53.6 °F 53.6 °F 100% 30.15 in 4.0 mi Calm Calm - N/A   Partly Cloudy
7:55 AM 53.8 °F 53.8 °F 100% 30.15 in 4.0 mi Calm Calm - N/A   Partly Cloudy
7:58 AM 53.6 °F 53.6 °F 100% 30.15 in 5.0 mi NNW 3.5 mph - N/A   Partly Cloudy
8:55 AM 61.9 °F 61.7 °F 99% 30.16 in 10.0 mi SSW 4.6 mph - N/A   Clear
9:55 AM 64.0 °F 60.3 °F 87% 30.15 in 10.0 mi South 8.1 mph - N/A   Clear
10:55 AM 71.1 °F 58.8 °F 65% 30.15 in 10.0 mi South 11.5 mph - N/A   Clear
11:55 AM 74.7 °F 57.2 °F 54% 30.13 in 10.0 mi SSW 15.0 mph - N/A   Clear
12:55 PM 76.8 °F 55.8 °F 48% 30.10 in 10.0 mi South 13.8 mph 21.9 mph N/A   Clear
1:55 PM 77.9 °F 55.8 °F 46% 30.07 in 10.0 mi SSW 11.5 mph - N/A   Clear
2:55 PM 77.0 °F 56.8 °F 50% 30.06 in 10.0 mi South 6.9 mph - N/A   Scattered Clouds
3:55 PM 76.3 °F 56.7 °F 51% 30.05 in 10.0 mi South 9.2 mph - N/A   Scattered Clouds
4:32 PM 77.0 °F 55.4 °F 47% 30.05 in 10.0 mi South 8.1 mph - N/A Rain Light Rain
4:36 PM 77.0 °F 55.4 °F 47% 30.04 in 10.0 mi South 10.4 mph - N/A   Clear
4:55 PM 75.7 °F 56.1 °F 50% 30.04 in 10.0 mi South 10.4 mph - 0.00 in   Clear
5:55 PM 68.4 °F 55.9 °F 64% 30.06 in 10.0 mi SSE 5.8 mph - N/A   Clear
6:55 PM 65.5 °F 55.6 °F 70% 30.08 in 10.0 mi Calm Calm - N/A   Clear
7:55 PM 64.2 °F 56.7 °F 76% 30.10 in 10.0 mi SSE 8.1 mph - N/A   Clear
8:55 PM 63.7 °F 57.6 °F 80% 30.10 in 10.0 mi South 8.1 mph - N/A   Clear
9:55 PM 62.2 °F 58.3 °F 87% 30.11 in 10.0 mi South 6.9 mph - N/A   Clear
10:55 PM 60.4 °F 58.8 °F 94% 30.12 in 10.0 mi Calm Calm - N/A   Clear
11:55 PM 58.3 °F 57.9 °F 99% 30.12 in 10.0 mi Calm Calm - N/A   Clear